| time (UTC) | temp F | wind direction | speed MPH | gust MPH | rain 1hr in | rain 24hr in | rain mn in | humidity % | barometer mb |
| 20260901171536 | 84 | 325 | 0.0 | 3.0 | 0.00 | 0.20 | 0.00 | 83 | 1016.4 |
| 20260901170013 | 84 | 324 | 0.0 | 3.0 | 0.00 | 0.20 | 0.00 | 82 | 1016.7 |
| 20260901164513 | 84 | 38 | 0.0 | 3.0 | 0.00 | 0.20 | 0.00 | 82 | 1016.7 |
| 20260901163012 | 84 | 39 | 0.0 | 4.0 | 0.00 | 0.20 | 0.00 | 81 | 1016.8 |
| 20260901161511 | 85 | 355 | 2.0 | 5.0 | 0.00 | 0.20 | 0.00 | 80 | 1016.7 |
| 20260901160015 | 85 | 38 | 1.0 | 10.0 | 0.00 | 0.20 | 0.00 | 80 | 1016.8 |
| 20260901154510 | 86 | 18 | 0.0 | 5.0 | 0.00 | 0.20 | 0.00 | 80 | 1016.5 |
| 20260901153008 | 85 | 355 | 0.0 | 4.0 | 0.00 | 0.20 | 0.00 | 81 | 1016.4 |
| 20260901151505 | 85 | 13 | 0.0 | 5.0 | 0.00 | 0.20 | 0.00 | 81 | 1016.3 |
| 20260901150005 | 84 | 19 | 0.0 | 4.0 | 0.00 | 0.20 | 0.00 | 82 | 1016.3 |
| 20260901144559 | 84 | 323 | 0.0 | 5.0 | 0.00 | 0.20 | 0.00 | 84 | 1016.3 |
| 20260901143059 | 83 | 309 | 0.0 | 4.0 | 0.00 | 0.20 | 0.00 | 84 | 1016.3 |
| 20260901141603 | 82 | 21 | 0.0 | 5.0 | 0.00 | 0.20 | 0.00 | 86 | 1016.4 |
| 20260901140059 | 82 | 271 | 0.0 | 2.0 | 0.00 | 0.20 | 0.00 | 88 | 1016.3 |
| 20260901134551 | 82 | 305 | 0.0 | 1.0 | 0.00 | 0.20 | 0.00 | 89 | 1016.2 |
| 20260901133053 | 82 | 304 | 0.0 | 3.0 | 0.00 | 0.20 | 0.00 | 90 | 1016.2 |
| 20260901131549 | 81 | 304 | 0.0 | 2.0 | 0.00 | 0.20 | 0.00 | 90 | 1016.2 |
| 20260901130047 | 81 | 304 | 0.0 | 2.0 | 0.00 | 0.20 | 0.00 | 91 | 1016.1 |
| 20260901124547 | 81 | 304 | 1.0 | 4.0 | 0.00 | 0.20 | 0.00 | 91 | 1015.9 |
| 20260901123040 | 81 | 182 | 0.0 | 1.0 | 0.00 | 0.20 | 0.00 | 91 | 1015.8 |
| 20260901121540 | 81 | 182 | 0.0 | 2.0 | 0.00 | 0.20 | 0.00 | 91 | 1015.4 |
| 20260901120038 | 81 | 182 | 0.0 | 2.0 | 0.00 | 0.20 | 0.00 | 91 | 1015.4 |
| 20260901114536 | 81 | 182 | 0.0 | 2.0 | 0.00 | 0.20 | 0.00 | 91 | 1015.3 |
| 20260901113042 | 81 | 182 | 0.0 | 2.0 | 0.00 | 0.20 | 0.00 | 91 | 1015.4 |
| 20260901111531 | 81 | 181 | 0.0 | 2.0 | 0.00 | 0.20 | 0.00 | 91 | 1015.4 |
| 20260901110030 | 81 | 181 | 0.0 | 2.0 | 0.00 | 0.20 | 0.00 | 91 | 1015.3 |
| 20260901104529 | 82 | 181 | 0.0 | 3.0 | 0.00 | 0.20 | 0.00 | 91 | 1015.2 |
| 20260901103032 | 82 | 181 | 0.0 | 0.0 | 0.00 | 0.20 | 0.00 | 91 | 1015.3 |
| 20260901101529 | 82 | 181 | 0.0 | 2.0 | 0.00 | 0.20 | 0.00 | 91 | 1015.3 |
| 20260901100028 | 82 | 181 | 0.0 | 2.0 | 0.00 | 0.20 | 0.00 | 90 | 1015.2 |
| 20260901094525 | 82 | 181 | 0.0 | 1.0 | 0.00 | 0.20 | 0.00 | 89 | 1015.4 |
| 20260901093028 | 83 | 181 | 0.0 | 1.0 | 0.00 | 0.20 | 0.00 | 89 | 1015.5 |
| 20260901091522 | 83 | 181 | 0.0 | 3.0 | 0.00 | 0.20 | 0.00 | 88 | 1015.6 |
| 20260901090018 | 84 | 181 | 0.0 | 3.0 | 0.00 | 0.20 | 0.00 | 88 | 1015.6 |
| 20260901084519 | 84 | 181 | 0.0 | 1.0 | 0.00 | 0.20 | 0.00 | 88 | 1015.6 |
| 20260901083017 | 84 | 181 | 0.0 | 0.0 | 0.00 | 0.20 | 0.00 | 86 | 1015.5 |
| 20260901081516 | 84 | 181 | 0.0 | 0.0 | 0.00 | 0.20 | 0.00 | 86 | 1015.4 |
| 20260901080017 | 84 | 181 | 0.0 | 0.0 | 0.00 | 0.20 | 0.00 | 86 | 1015.5 |
| 20260901074516 | 84 | 181 | 0.0 | 0.0 | 0.00 | 0.20 | 0.00 | 86 | 1015.5 |
| 20260901073013 | 84 | 181 | 0.0 | 1.0 | 0.00 | 0.20 | 0.00 | 85 | 1015.6 |
| 20260901071511 | 84 | 181 | 0.0 | 1.0 | 0.00 | 0.20 | 0.00 | 85 | 1015.6 |
| 20260901070009 | 85 | 181 | 0.0 | 1.0 | 0.00 | 0.20 | 0.00 | 85 | 1015.9 |
| 20260901064518 | 85 | 181 | 0.0 | 3.0 | 0.00 | 0.20 | 0.00 | 85 | 1015.8 |
| 20260901063024 | 85 | 181 | 0.0 | 1.0 | 0.00 | 0.20 | 0.00 | 84 | 1015.7 |
| 20260901061508 | 85 | 181 | 0.0 | 2.0 | 0.00 | 0.20 | 0.00 | 84 | 1015.8 |
| 20260901060009 | 85 | 181 | 0.0 | 5.0 | 0.00 | 0.20 | 0.00 | 84 | 1016.0 |
| 20260901054505 | 85 | 182 | 0.0 | 3.0 | 0.00 | 0.20 | 0.00 | 84 | 1015.9 |
| 20260901053005 | 85 | 183 | 0.0 | 2.0 | 0.00 | 0.20 | 0.00 | 84 | 1015.9 |
| 20260901051502 | 85 | 183 | 0.0 | 1.0 | 0.00 | 0.20 | 0.00 | 85 | 1015.9 |
| 20260901050100 | 85 | 183 | 0.0 | 3.0 | 0.00 | 0.20 | 0.00 | 84 | 1015.7 |
| 20260901044605 | 85 | 181 | 0.0 | 0.0 | 0.00 | 0.20 | 0.20 | 83 | 1015.7 |
| 20260901043059 | 85 | 181 | 0.0 | 1.0 | 0.00 | 0.20 | 0.20 | 83 | 1015.7 |
| 20260901041558 | 85 | 181 | 0.0 | 1.0 | 0.00 | 0.20 | 0.20 | 84 | 1015.8 |
| 20260901040057 | 85 | 181 | 0.0 | 1.0 | 0.00 | 0.20 | 0.20 | 84 | 1015.8 |
| 20260901034556 | 85 | 181 | 0.0 | 0.0 | 0.00 | 0.20 | 0.20 | 82 | 1015.7 |
| 20260901033055 | 85 | 181 | 0.0 | 1.0 | 0.00 | 0.20 | 0.20 | 83 | 1015.9 |
| 20260901031555 | 85 | 181 | 0.0 | 1.0 | 0.00 | 0.20 | 0.20 | 83 | 1015.7 |
| 20260901030055 | 85 | 181 | 0.0 | 1.0 | 0.00 | 0.20 | 0.20 | 83 | 1015.6 |
| 20260901024554 | 85 | 181 | 0.0 | 0.0 | 0.00 | 0.20 | 0.20 | 82 | 1015.4 |
| 20260901023053 | 85 | 181 | 0.0 | 3.0 | 0.00 | 0.20 | 0.20 | 82 | 1015.0 |
| 20260901021553 | 85 | 181 | 0.0 | 1.0 | 0.00 | 0.20 | 0.20 | 82 | 1015.0 |
| 20260901020055 | 86 | 181 | 1.0 | 4.0 | 0.00 | 0.20 | 0.20 | 83 | 1014.8 |
| 20260901014553 | 86 | 181 | 1.0 | 4.0 | 0.00 | 0.20 | 0.20 | 83 | 1014.7 |
| 20260901013102 | 86 | 181 | 0.0 | 4.0 | 0.00 | 0.20 | 0.20 | 82 | 1014.6 |
| 20260901011551 | 87 | 182 | 1.0 | 3.0 | 0.00 | 0.20 | 0.20 | 80 | 1014.5 |
| 20260901010052 | 87 | 182 | 1.0 | 5.0 | 0.00 | 0.20 | 0.20 | 80 | 1014.5 |
| 20260901004549 | 87 | 182 | 1.0 | 5.0 | 0.00 | 0.20 | 0.20 | 78 | 1014.6 |
| 20260901003048 | 87 | 182 | 3.0 | 5.0 | 0.00 | 0.20 | 0.20 | 79 | 1014.7 |
| 20260901001549 | 88 | 182 | 3.0 | 5.0 | 0.00 | 0.20 | 0.20 | 78 | 1014.6 |
| 20260901000047 | 88 | 182 | 2.0 | 5.0 | 0.00 | 0.20 | 0.20 | 76 | 1014.6 |
| 20260831234552 | 88 | 183 | 2.0 | 6.0 | 0.00 | 0.20 | 0.20 | 76 | 1014.6 |
| 20260831233053 | 88 | 183 | 2.0 | 7.0 | 0.00 | 0.20 | 0.20 | 77 | 1014.7 |
| 20260831231547 | 89 | 179 | 1.0 | 5.0 | 0.00 | 0.20 | 0.20 | 74 | 1014.7 |
| 20260831230044 | 89 | 186 | 1.0 | 4.0 | 0.00 | 0.20 | 0.20 | 72 | 1014.8 |
| 20260831224543 | 89 | 217 | 1.0 | 4.0 | 0.00 | 0.20 | 0.20 | 74 | 1014.8 |
| 20260831223052 | 88 | 219 | 0.0 | 2.0 | 0.00 | 0.20 | 0.20 | 77 | 1014.9 |
| 20260831221541 | 87 | 219 | 1.0 | 4.0 | 0.00 | 0.20 | 0.20 | 78 | 1014.8 |
| 20260831220045 | 87 | 222 | 1.0 | 2.0 | 0.00 | 0.20 | 0.20 | 80 | 1015.0 |
| 20260831214554 | 86 | 222 | 1.0 | 4.0 | 0.00 | 0.20 | 0.20 | 82 | 1015.2 |
| 20260831213038 | 85 | 222 | 1.0 | 3.0 | 0.00 | 0.20 | 0.20 | 83 | 1015.4 |
| 20260831211538 | 85 | 222 | 0.0 | 4.0 | 0.00 | 0.20 | 0.20 | 85 | 1015.6 |
| 20260831210038 | 84 | 222 | 2.0 | 6.0 | 0.19 | 0.20 | 0.20 | 85 | 1015.9 |
| 20260831204534 | 84 | 237 | 2.0 | 5.0 | 0.20 | 0.20 | 0.20 | 85 | 1015.9 |
| 20260831203034 | 84 | 262 | 1.0 | 3.0 | 0.20 | 0.20 | 0.20 | 86 | 1016.2 |
| 20260831201534 | 85 | 295 | 2.0 | 8.0 | 0.20 | 0.20 | 0.20 | 82 | 1016.1 |
| 20260831200033 | 92 | 304 | 2.0 | 9.0 | 0.00 | 0.00 | 0.00 | 75 | 1016.3 |
| 20260831194530 | 92 | 146 | 1.0 | 7.0 | 0.00 | 0.00 | 0.00 | 70 | 1016.3 |
| 20260831193049 | 94 | 5 | 1.0 | 6.0 | 0.00 | 0.00 | 0.00 | 66 | 1016.2 |
| 20260831191525 | 94 | 134 | 0.0 | 3.0 | 0.00 | 0.00 | 0.00 | 66 | 1016.5 |
| 20260831190024 | 94 | 355 | 1.0 | 5.0 | 0.00 | 0.00 | 0.00 | 65 | 1016.7 |
| 20260831184515 | 94 | 344 | 2.0 | 4.0 | 0.00 | 0.00 | 0.00 | 66 | 1016.7 |
| 20260831183013 | 93 | 342 | 1.0 | 3.0 | 0.00 | 0.00 | 0.00 | 69 | 1016.8 |
| 20260831181509 | 92 | 344 | 1.0 | 6.0 | 0.00 | 0.00 | 0.00 | 71 | 1017.0 |
| 20260831180010 | 91 | 158 | 1.0 | 6.0 | 0.00 | 0.00 | 0.00 | 72 | 1017.2 |
| 20260831174502 | 92 | 136 | 0.0 | 4.0 | 0.00 | 0.00 | 0.00 | 71 | 1017.2 |
| 20260831173103 | 91 | 277 | 0.0 | 4.0 | 0.00 | 0.00 | 0.00 | 75 | 1017.6 |